Location: Dompnac
(44.5644°N, 4.1026°E)
Time: 20:10:48
(UTC+00:00)

MOS 1 Rocket - Pass Details

Date: 19 September 2020
Orbit: 614 x 831 km, 97.4° (Epoch: 27 October)

Event Time Altitude Azimuth Distance (km) Brightness Sun altitude
Rises 18:08:56 0° 22° (NNE) 3,000 6.4 -4.9°
Reaches altitude 10° 18:11:29 10° 34° (NE) 2,053 5.5 -5.3°
Maximum altitude 18:15:19 28° 94° (E) 1,190 4.0 -6.0°
Drops below altitude 10° 18:19:00 10° 154° (SSE) 1,979 5.3 -6.7°
Sets 18:21:24 0° 166° (SSE) 2,870 6.2 -7.1°
